Location: Lake Sonoma
(38.7200°N, 123.0564°W)
Time: 12:14:58
(UTC-07:00)

ISS - Visible Passes

Search period start: 24 May 2015 00:00
Search period end: 03 June 2015 00:00
Orbit: 399 x 404 km, 51.6° (Epoch: 24 May)

Date Brightness Start Highest point End Pass type
(mag) Time Alt. Az. Time Alt. Az. Time Alt. Az.
24 May -0.1 02:01:46 14° NNE 02:01:46 14° NNE 02:02:25 10° NE visible
24 May -0.2 03:35:48 10° NNW 03:36:37 11° NNW 03:37:25 10° N visible
25 May -0.4 02:42:44 13° NNW 02:43:05 14° NNW 02:44:50 10° NNE visible
26 May -0.1 01:51:03 15° N 01:51:03 15° N 01:52:01 10° NNE visible
26 May -0.1 05:03:13 10° N 05:04:40 12° NNE 05:06:09 10° NE visible
27 May 0.0 02:33:04 10° NNW 02:33:27 10° N 02:33:47 10° N visible
28 May 0.0 01:39:54 13° NNW 01:39:54 13° NNW 01:41:24 10° NNE visible
28 May -0.3 04:52:35 10° NNW 04:54:56 18° NNE 04:57:18 10° ENE visible
29 May -0.1 00:47:43 14° N 00:47:43 14° N 00:48:35 10° NNE visible
29 May 0.0 03:59:44 10° NNW 04:01:23 13° NNE 04:03:04 10° NE visible
29 May -0.4 23:54:51 15° NNE 23:54:51 15° NNE 23:55:38 10° NNE visible
30 May 0.3 03:07:11 10° N 03:07:47 10° NNE 03:08:24 10° NNE visible
30 May -1.2 04:42:03 10° NW 04:45:00 31° NNE 04:47:59 10° E visible
30 May -1.8 21:21:05 10° S 21:23:14 17° SE 21:25:27 10° E visible
30 May -2.2 22:56:17 10° WSW 22:59:25 44° NW 23:02:34 10° NE visible
31 May 0.2 00:35:09 10° NW 00:36:30 12° NNW 00:37:50 10° N visible
31 May -0.4 03:49:03 10° NNW 03:51:32 20° NNE 03:54:03 10° ENE visible
31 May -3.5 22:02:51 10° SW 22:06:05 90° SE 22:09:21 10° NE visible
31 May -0.2 23:40:46 10° WNW 23:42:54 16° NNW 23:45:00 10° NNE visible
01 Jun 0.1 02:56:09 10° NNW 02:57:58 14° NNE 02:59:50 10° NE visible
01 Jun -3.0 04:31:38 10° NW 04:34:54 68° NE 04:38:08 10° ESE visible
01 Jun -3.0 21:09:46 10° SSW 21:12:49 41° SE 21:15:54 10° ENE visible
01 Jun -0.8 22:46:39 10° W 22:49:21 23° NNW 22:52:02 10° NNE visible
02 Jun 0.4 02:03:25 10° N 02:04:19 11° NNE 02:05:16 10° NNE visible
02 Jun -1.6 03:38:28 10° NW 03:41:30 35° NNE 03:44:33 10° E visible
02 Jun -2.1 05:15:09 10° WNW 05:17:48 22° SW 05:20:23 10° S visible
02 Jun -1.8 21:52:48 10° WSW 21:55:52 38° NNW 21:58:56 10° NE visible
02 Jun 0.3 23:31:54 10° NW 23:33:01 11° NNW 23:34:05 10° N visible
